Regional Weather Roundup
Issued by NWS Goodland, KS

Home | Current Version | Previous Version | Graphics & Text | Print | Product List | Glossary On
Versions: 1 2 3 4 5 6 7 8 9 10 11 12 13 14 15 16 17 18 19 20 21 22 23 24 25 26 27 28 29 30 31 32 33 34 35 36 37 38 39 40 41 42 43 44 45 46 47 48 49 50
000
ASUS43 KGLD 230508
RWRGLD

GOODLAND FORECAST AREA HOURLY WEATHER ROUNDUP
NATIONAL WEATHER SERVICE GOODLAND KS
1100 PM MDT SAT JUL 22 2017

...OFFICIAL OBSERVATIONS...

CITY           SKY/WX    TMP DP  RH WIND       PRES   REMARKS
GOODLAND KS    CLEAR     64  54  69 NW5       30.11R
HILL CITY KS   CLOUDY    71  69  93 N3        29.98F
IMPERIAL NEB   CLEAR     69  54  58 CALM      30.10R
MCCOOK NEB     CLEAR     69  61  75 N5        30.04R
AKRON CO       CLEAR     69  55  60 S12       30.17S
BURLINGTON CO  CLEAR     62  53  72 CALM      30.16R
LIMON CO       CLOUDY    61  57  87 CALM      30.24R
$$

...UNOFFICIAL OBSERVATIONS...

CITY           SKY/WX    TMP DP  RH WIND       PRES   REMARKS
LENORA KS        N/A     73  32  22 MISG        N/A
NORTON KS      CLEAR     70  64  83 N8        30.01S
SHARON SPRINGS   N/A     64  53  67 NW6         N/A
TRENTON NEB      N/A     66  32  28 CALM        N/A
KIT CARSON CO    N/A     65  50  58 CALM        N/A
YUMA CO        FAIR      63  50  63 S6        30.15S
$$




USA.gov is the U.S. government's official web portal to all federal, state and local government web resources and services.